Location: Moscow
(55.7500°N, 37.5830°E)
Time: 16:29:11
(UTC+03:00)

Transit 2A - Pass Details

Date: 08 December 2021
Orbit: 591 x 967 km, 66.7° (Epoch: 17 January)

Event Time Altitude Azimuth Distance (km) Brightness Sun altitude
Rises 08:04:16 0° 316° (NW) 3,655 - -5.4°
Exits shadow 08:05:47 - 315° (NW) 3,106 8.5 -5.2°
Reaches altitude 10° 08:06:53 10° 313° (NW) 2,716 8.2 -5.1°
Maximum altitude 08:13:08 57° 237° (WSW) 1,123 6.8 -4.4°
Drops below altitude 10° 08:19:11 10° 160° (SSE) 2,627 9.8 -3.7°
Sets 08:21:41 0° 157° (SSE) 3,528 10.6 -3.4°
